• In Österreich
  • Länderverzeichnis
  • Für 7 Tage
  • Wassertemperatur
  • Satellitenkarten
  • Wetterkarte
  • News
  • Widgets
  • user-avatar
    Anmelden

    Stündliche Wetter Washington

    Heute, 20 September, Donnerstag

    Zeit Temperatur Niederschläge Wind Luftdruck Luftfeuchtigkeit
    00:00 +23°C° 0 mm 1 m/S 756 mmHg 83%
    01:00 +22°C° 0 mm 1 m/S 756 mmHg 85%
    02:00 +22°C° 0 mm 1 m/S 756 mmHg 86%
    03:00 +22°C° 0 mm 1 m/S 757 mmHg 86%
    04:00 +21°C° 0 mm 1 m/S 757 mmHg 87%
    05:00 +21°C° 0 mm 1 m/S 757 mmHg 87%
    06:00 +21°C° 0 mm 1 m/S 758 mmHg 87%
    07:00 +21°C° 0 mm 1 m/S 758 mmHg 86%
    08:00 +23°C° 0 mm 1 m/S 759 mmHg 80%
    09:00 +25°C° 0 mm 1 m/S 759 mmHg 74%
    10:00 +27°C° 0 mm 1 m/S 759 mmHg 68%
    11:00 +28°C° 0 mm 1 m/S 759 mmHg 67%
    12:00 +29°C° 0 mm 1 m/S 759 mmHg 65%
    13:00 +29°C° 0 mm 1 m/S 759 mmHg 64%
    14:00 +29°C° 0 mm 2 m/S 758 mmHg 65%
    15:00 +29°C° 0 mm 2 m/S 758 mmHg 67%
    16:00 +29°C° 0 mm 2 m/S 758 mmHg 69%
    17:00 +27°C° 0 mm 3 m/S 758 mmHg 74%
    18:00 +26°C° 0 mm 3 m/S 759 mmHg 79%
    19:00 +25°C° 0 mm 3 m/S 759 mmHg 84%
    20:00 +24°C° 0 mm 3 m/S 759 mmHg 84%
    21:00 +24°C° 0 mm 3 m/S 760 mmHg 85%
    22:00 +22°C° 0 mm 3 m/S 760 mmHg 85%
    23:00 +22°C° 0 mm 3 m/S 760 mmHg 85%

    Morgen, 21 September, Freitag

    Zeit Temperatur Niederschläge Wind Luftdruck Luftfeuchtigkeit
    00:00 +22°C° 0 mm 3 m/S 760 mmHg 86%
    01:00 +22°C° 0 mm 3 m/S 760 mmHg 86%
    02:00 +21°C° 0 mm 3 m/S 759 mmHg 87%
    03:00 +21°C° 0 mm 3 m/S 759 mmHg 87%
    04:00 +21°C° 0 mm 3 m/S 759 mmHg 87%
    05:00 +21°C° 0 mm 3 m/S 759 mmHg 88%
    06:00 +21°C° 0 mm 3 m/S 759 mmHg 88%
    07:00 +21°C° 0 mm 3 m/S 759 mmHg 88%
    08:00 +22°C° 0 mm 3 m/S 759 mmHg 85%
    09:00 +24°C° 0 mm 3 m/S 759 mmHg 82%
    10:00 +25°C° 0 mm 3 m/S 759 mmHg 79%
    11:00 +26°C° 0 mm 4 m/S 759 mmHg 77%
    12:00 +27°C° 0 mm 4 m/S 758 mmHg 74%
    13:00 +28°C° 0 mm 4 m/S 758 mmHg 72%
    14:00 +28°C° 0 mm 4 m/S 757 mmHg 71%
    15:00 +29°C° 0 mm 4 m/S 756 mmHg 70%
    16:00 +29°C° 0 mm 4 m/S 756 mmHg 70%
    17:00 +28°C° 0 mm 4 m/S 756 mmHg 74%
    18:00 +27°C° 0 mm 3 m/S 756 mmHg 78%
    19:00 +26°C° 0 mm 3 m/S 756 mmHg 82%
    20:00 +26°C° 0.1 mm 3 m/S 756 mmHg 83%
    21:00 +26°C° 0.1 mm 3 m/S 756 mmHg 84%
    22:00 +26°C° 0.1 mm 4 m/S 756 mmHg 85%
    23:00 +25°C° 0.2 mm 4 m/S 756 mmHg 86%

    übermorgen, 22 September, Samstag

    Zeit Temperatur Niederschläge Wind Luftdruck Luftfeuchtigkeit
    00:00 +25°C° 0.2 mm 3 m/S 756 mmHg 88%
    01:00 +25°C° 0.2 mm 3 m/S 756 mmHg 90%
    02:00 +24°C° 0.1 mm 2 m/S 756 mmHg 91%
    03:00 +24°C° 0.1 mm 2 m/S 756 mmHg 93%
    04:00 +23°C° 0.1 mm 2 m/S 756 mmHg 94%
    05:00 +24°C° 0 mm 2 m/S 756 mmHg 93%
    06:00 +24°C° 0 mm 2 m/S 756 mmHg 92%
    07:00 +24°C° 0 mm 2 m/S 756 mmHg 91%
    08:00 +25°C° 0 mm 2 m/S 757 mmHg 84%
    09:00 +26°C° 0 mm 2 m/S 757 mmHg 78%
    10:00 +27°C° 0 mm 3 m/S 757 mmHg 71%
    11:00 +27°C° 0.1 mm 3 m/S 757 mmHg 69%
    12:00 +28°C° 0.1 mm 3 m/S 757 mmHg 67%
    13:00 +28°C° 0.1 mm 3 m/S 756 mmHg 65%
    14:00 +27°C° 0.2 mm 3 m/S 756 mmHg 68%
    15:00 +26°C° 0.2 mm 3 m/S 756 mmHg 71%
    16:00 +25°C° 0.2 mm 3 m/S 756 mmHg 74%
    17:00 +22°C° 1.1 mm 3 m/S 756 mmHg 77%
    18:00 +21°C° 1.1 mm 3 m/S 757 mmHg 80%
    19:00 +20°C° 1.1 mm 3 m/S 757 mmHg 83%
    20:00 +19°C° 1.4 mm 2 m/S 757 mmHg 84%
    21:00 +19°C° 1.4 mm 2 m/S 758 mmHg 86%
    22:00 +18°C° 1.4 mm 2 m/S 758 mmHg 87%
    23:00 +18°C° 0.7 mm 2 m/S 758 mmHg 87%

    23 September, Sonntag

    Zeit Temperatur Niederschläge Wind Luftdruck Luftfeuchtigkeit
    00:00 +18°C° 0.7 mm 2 m/S 758 mmHg 88%
    01:00 +18°C° 0.7 mm 2 m/S 758 mmHg 88%
    02:00 +18°C° 1.1 mm 2 m/S 758 mmHg 89%
    03:00 +18°C° 1.1 mm 2 m/S 758 mmHg 90%
    04:00 +17°C° 1.1 mm 2 m/S 758 mmHg 91%
    05:00 +17°C° 1.3 mm 2 m/S 758 mmHg 91%
    06:00 +17°C° 1.3 mm 2 m/S 759 mmHg 91%
    07:00 +17°C° 1.3 mm 2 m/S 759 mmHg 92%
    08:00 +17°C° 0.6 mm 2 m/S 759 mmHg 89%
    09:00 +18°C° 0.6 mm 2 m/S 760 mmHg 87%
    10:00 +18°C° 0.6 mm 3 m/S 760 mmHg 85%
    11:00 +18°C° 0.1 mm 3 m/S 760 mmHg 82%
    12:00 +19°C° 0.1 mm 3 m/S 760 mmHg 78%
    13:00 +19°C° 0.1 mm 3 m/S 760 mmHg 74%
    14:00 +19°C° 0 mm 3 m/S 760 mmHg 74%
    15:00 +19°C° 0 mm 3 m/S 760 mmHg 74%
    16:00 +19°C° 0 mm 2 m/S 760 mmHg 74%
    17:00 +18°C° 0 mm 2 m/S 761 mmHg 74%
    18:00 +17°C° 0 mm 2 m/S 761 mmHg 75%
    19:00 +17°C° 0 mm 2 m/S 761 mmHg 75%
    20:00 +16°C° 0 mm 2 m/S 762 mmHg 74%
    21:00 +16°C° 0 mm 2 m/S 762 mmHg 74%
    22:00 +16°C° 0 mm 2 m/S 762 mmHg 74%
    23:00 +15°C° 0 mm 2 m/S 763 mmHg 74%

    24 September, Montag

    Zeit Temperatur Niederschläge Wind Luftdruck Luftfeuchtigkeit
    00:00 +15°C° 0 mm 2 m/S 763 mmHg 74%
    01:00 +15°C° 0 mm 2 m/S 763 mmHg 73%
    02:00 +15°C° 0 mm 2 m/S 763 mmHg 74%
    03:00 +14°C° 0 mm 2 m/S 763 mmHg 75%
    04:00 +14°C° 0 mm 2 m/S 763 mmHg 75%
    05:00 +14°C° 0.4 mm 2 m/S 764 mmHg 76%
    06:00 +14°C° 0.4 mm 2 m/S 764 mmHg 76%
    07:00 +14°C° 0.4 mm 2 m/S 765 mmHg 77%
    08:00 +15°C° 0.1 mm 2 m/S 765 mmHg 78%
    09:00 +16°C° 0.1 mm 2 m/S 765 mmHg 79%
    10:00 +17°C° 0.1 mm 2 m/S 765 mmHg 80%
    11:00 +18°C° 0 mm 2 m/S 765 mmHg 80%
    12:00 +19°C° 0 mm 2 m/S 765 mmHg 80%
    13:00 +20°C° 0 mm 3 m/S 764 mmHg 80%
    14:00 +20°C° 0 mm 3 m/S 764 mmHg 79%
    15:00 +21°C° 0 mm 3 m/S 764 mmHg 78%
    16:00 +21°C° 0 mm 3 m/S 764 mmHg 77%
    17:00 +20°C° 0 mm 3 m/S 764 mmHg 78%
    18:00 +20°C° 0 mm 3 m/S 764 mmHg 78%
    19:00 +19°C° 0 mm 3 m/S 764 mmHg 79%
    20:00 +19°C° 0 mm 3 m/S 764 mmHg 80%
    21:00 +19°C° 0 mm 3 m/S 764 mmHg 82%
    22:00 +19°C° 0 mm 3 m/S 764 mmHg 83%
    23:00 +19°C° 0.3 mm 3 m/S 764 mmHg 86%

    25 September, Dienstag

    Zeit Temperatur Niederschläge Wind Luftdruck Luftfeuchtigkeit
    00:00 +19°C° 0.3 mm 3 m/S 764 mmHg 88%
    01:00 +19°C° 0.3 mm 3 m/S 763 mmHg 90%
    02:00 +20°C° 0.9 mm 3 m/S 763 mmHg 91%
    03:00 +20°C° 0.9 mm 3 m/S 763 mmHg 93%
    04:00 +20°C° 0.9 mm 3 m/S 762 mmHg 94%
    05:00 +20°C° 1 mm 3 m/S 762 mmHg 94%
    06:00 +20°C° 1 mm 3 m/S 762 mmHg 94%
    07:00 +20°C° 1 mm 3 m/S 762 mmHg 94%
    08:00 +21°C° 0.3 mm 3 m/S 762 mmHg 94%
    09:00 +22°C° 0.3 mm 3 m/S 762 mmHg 93%
    10:00 +22°C° 0.3 mm 3 m/S 762 mmHg 92%
    11:00 +24°C° 0.3 mm 3 m/S 761 mmHg 88%
    12:00 +26°C° 0.3 mm 2 m/S 760 mmHg 84%
    13:00 +27°C° 0.3 mm 2 m/S 760 mmHg 80%
    14:00 +27°C° 0.3 mm 2 m/S 759 mmHg 78%
    15:00 +28°C° 0.3 mm 2 m/S 759 mmHg 77%
    16:00 +28°C° 0.3 mm 1 m/S 758 mmHg 75%
    17:00 +27°C° 0.2 mm 1 m/S 758 mmHg 80%
    18:00 +25°C° 0.2 mm 1 m/S 758 mmHg 85%
    19:00 +24°C° 0.2 mm 1 m/S 758 mmHg 90%
    20:00 +24°C° 0.1 mm 1 m/S 758 mmHg 91%
    21:00 +24°C° 0.1 mm 2 m/S 758 mmHg 92%
    22:00 +23°C° 0.1 mm 2 m/S 758 mmHg 93%
    23:00 +23°C° 0.4 mm 2 m/S 758 mmHg 94%
    Mehr zeigen